GW1572 Weather Reports


time (UTC)temp
C
wind
direction
speed
KPH
gust
KPH
rain 1hr
cm
rain 24hr
cm
rain mn
cm
humidity
%
barometer
mb
20260505204543 25 283 3.2 4.8 0.00 0.00 0.00 48 1001.3
20260505203317 23 359 4.8 4.8 0.00 0.00 0.00 50 1001.6
20260505202754 23 20 4.8 4.8 0.00 0.00 0.00 52 1001.6
20260505202112 23 3 4.8 4.8 0.00 0.00 0.00 51 1001.6
20260505201532 23 2 3.2 4.8 0.00 0.00 0.00 50 1001.6
20260505200940 23 345 4.8 6.4 0.00 0.00 0.00 51 1001.6
20260505195709 23 293 3.2 3.2 0.00 0.00 0.00 51 1001.6
20260505194543 23 351 6.4 6.4 0.00 0.00 0.00 50 1002.0
20260505193940 23 7 6.4 11.3 0.00 0.00 0.00 51 1002.3
20260505193332 23 356 4.8 6.4 0.00 0.00 0.00 52 1002.3
20260505192115 23 338 6.4 6.4 0.00 0.00 0.00 49 1002.3
20260505190931 23 9 6.4 11.3 0.00 0.00 0.00 52 1002.7
20260505190336 23 358 3.2 4.8 0.00 0.00 0.00 52 1002.7
20260505185752 23 327 4.8 6.4 0.00 0.00 0.00 52 1002.7
20260505185140 23 6 6.4 9.7 0.00 0.00 0.00 52 1003.0
20260505184551 23 347 4.8 6.4 0.00 0.00 0.00 51 1003.0
20260505183341 23 282 6.4 9.7 0.00 0.00 0.00 51 1003.0
20260505181514 23 279 8.0 12.9 0.00 0.00 0.00 52 1003.0
20260505180926 23 293 8.0 9.7 0.00 0.00 0.00 50 1003.3
20260505180313 23 305 4.8 4.8 0.00 0.00 0.00 51 1003.0
20260505175713 23 11 6.4 12.9 0.00 0.00 0.00 50 1003.3
20260505175125 23 354 6.4 9.7 0.00 0.00 0.00 51 1003.3
20260505174525 23 353 8.0 9.7 0.00 0.00 0.00 51 1003.3
20260505173933 23 343 6.4 6.4 0.00 0.00 0.00 52 1003.0
20260505173350 23 344 9.7 14.5 0.00 0.00 0.00 50 1003.0
20260505172720 23 42 8.0 9.7 0.00 0.00 0.00 52 1003.3
20260505172131 23 27 8.0 12.9 0.00 0.00 0.00 52 1003.0
20260505171517 23 336 6.4 9.7 0.00 0.00 0.00 52 1003.3
20260505170939 23 354 8.0 9.7 0.00 0.00 0.00 51 1003.3
20260505170328 23 339 6.4 9.7 0.00 0.00 0.00 52 1003.3
20260505165708 23 357 9.7 12.9 0.00 0.00 0.00 53 1003.0
20260505165110 24 301 9.7 14.5 0.00 0.00 0.00 52 1003.3
20260505164512 23 335 9.7 14.5 0.00 0.00 0.00 52 1003.3
20260505163952 23 359 4.8 6.4 0.00 0.00 0.00 51 1003.0
20260505163316 23 322 16.1 22.5 0.00 0.00 0.00 52 1003.0
20260505162718 23 290 8.0 11.3 0.00 0.00 0.00 52 1003.3
20260505162148 23 263 6.4 9.7 0.00 0.00 0.00 52 1003.3
20260505161535 24 287 8.0 12.9 0.00 0.00 0.00 52 1003.3
20260505160921 23 2 6.4 6.4 0.00 0.00 0.00 54 1003.3
20260505160344 23 333 6.4 6.4 0.00 0.00 0.00 53 1003.3
20260505153319 23 354 8.0 9.7 0.00 0.00 0.00 54 1003.3
20260505152748 23 316 4.8 6.4 0.00 0.00 0.00 57 1003.3
20260505152114 23 359 8.0 11.3 0.00 0.00 0.00 53 1003.3
20260505151546 22 348 8.0 9.7 0.00 0.00 0.00 54 1003.7
20260505150942 22 24 6.4 6.4 0.00 0.00 0.00 55 1003.3
20260505150331 22 15 6.4 9.7 0.00 0.00 0.00 55 1003.3
20260505140322 21 266 6.4 6.4 0.00 0.00 0.00 57 1003.3
20260505124537 17 269 0.0 0.0 0.00 0.00 0.00 72 1003.7
20260505123916 17 217 0.0 0.0 0.00 0.00 0.00 75 1003.7
20260505123326 17 265 0.0 0.0 0.00 0.00 0.00 76 1004.0
20260505122715 17 300 0.0 0.0 0.00 0.00 0.00 70 1003.7
20260505122122 17 291 0.0 0.0 0.00 0.00 0.00 75 1003.7
20260505120935 17 294 0.0 1.6 0.00 0.00 0.00 75 1003.3
20260505120316 17 4 0.0 1.6 0.00 0.00 0.00 77 1003.3
20260505115721 17 275 0.0 0.0 0.00 0.00 0.00 76 1003.3
20260505115152 17 277 0.0 0.0 0.00 0.00 0.00 75 1003.3
20260505114514 17 259 0.0 0.0 0.00 0.00 0.00 75 1003.3
20260505113925 16 277 0.0 0.0 0.00 0.00 0.00 77 1003.3
20260505113317 16 270 0.0 0.0 0.00 0.00 0.00 76 1003.0
20260505112135 16 240 0.0 1.6 0.00 0.00 0.00 76 1003.0
20260505111538 15 7 4.8 4.8 0.00 0.00 0.00 73 1003.0
20260505110926 15 261 0.0 0.0 0.00 0.00 0.00 78 1002.7
20260505110324 16 233 0.0 0.0 0.00 0.00 0.00 78 1002.7
20260505101527 15 249 0.0 0.0 0.00 0.00 0.00 80 1002.7
20260505100942 15 240 0.0 1.6 0.00 0.00 0.00 81 1002.7
20260505100313 15 258 0.0 0.0 0.00 0.00 0.00 82 1002.7
20260505095739 15 259 0.0 0.0 0.00 0.00 0.00 81 1002.3
20260505095146 15 249 0.0 0.0 0.00 0.00 0.00 80 1002.7
20260505094528 15 239 0.0 0.0 0.00 0.00 0.00 81 1002.3
20260505093910 15 275 0.0 0.0 0.00 0.00 0.00 80 1002.7
20260505093331 15 283 0.0 0.0 0.00 0.00 0.00 80 1002.0
20260505092734 15 275 0.0 0.0 0.00 0.00 0.00 79 1002.0
20260505092112 15 9 0.0 0.0 0.00 0.00 0.00 79 1002.0
20260505091543 15 262 0.0 1.6 0.00 0.00 0.00 79 1002.0
20260505090932 15 280 0.0 0.0 0.00 0.00 0.00 78 1001.6
20260505090330 16 254 0.0 0.0 0.00 0.00 0.00 78 1001.6
20260505085725 16 256 0.0 0.0 0.00 0.00 0.00 76 1001.6
20260505085123 15 247 0.0 0.0 0.00 0.00 0.00 78 1001.6
20260505084548 16 285 0.0 0.0 0.00 0.00 0.00 78 1001.6
20260505083930 16 250 0.0 0.0 0.00 0.00 0.00 78 1001.6
20260505082713 16 15 0.0 1.6 0.00 0.00 0.00 76 1001.6
20260505081509 17 310 0.0 0.0 0.00 0.00 0.00 74 1001.6
20260505080952 17 229 1.6 1.6 0.00 0.00 0.00 73 1001.6
20260505080308 17 346 0.0 1.6 0.00 0.00 0.00 73 1001.6
20260505075729 18 341 0.0 1.6 0.00 0.00 0.00 67 1001.6
20260505075111 16 336 1.6 1.6 0.00 0.00 0.00 72 1001.6
20260505073939 17 3 1.6 1.6 0.00 0.00 0.00 73 1001.3
20260505073351 17 25 3.2 4.8 0.00 0.00 0.00 70 1001.3
20260505072150 16 343 0.0 0.0 0.00 0.00 0.00 79 1001.6
20260505070926 16 352 0.0 0.0 0.00 0.00 0.00 74 1001.6
20260505070310 16 8 0.0 0.0 0.00 0.00 0.00 72 1001.6
20260505065739 17 327 0.0 0.0 0.00 0.00 0.00 72 1001.3
20260505064531 16 313 0.0 0.0 0.00 0.00 0.00 76 1001.6
20260505063912 16 288 0.0 0.0 0.00 0.00 0.00 75 1001.6
20260505063352 15 200 0.0 0.0 0.00 0.00 0.00 78 1001.3
20260505062752 16 229 0.0 0.0 0.00 0.00 0.00 76 1001.6
20260505062120 15 275 0.0 0.0 0.00 0.00 0.00 78 1001.6
20260505060932 15 338 0.0 0.0 0.00 0.00 0.00 80 1001.6
20260505060347 15 290 0.0 0.0 0.00 0.00 0.00 80 1001.6
20260505055730 15 287 0.0 0.0 0.00 0.00 0.00 80 1001.6
20260505055120 15 274 0.0 0.0 0.00 0.00 0.00 81 1001.6
20260505054545 15 298 0.0 0.0 0.00 0.00 0.00 82 1001.3
20260505053930 15 288 0.0 0.0 0.00 0.00 0.00 81 1001.6
20260505053309 15 274 0.0 0.0 0.00 0.00 0.00 82 1001.6
20260505051537 15 265 0.0 0.0 0.00 0.00 0.00 80 1001.6
20260505050326 15 284 0.0 0.0 0.00 0.00 0.00 79 1001.3
20260505041526 16 290 0.0 0.0 0.00 0.00 0.00 78 1001.0
20260505040919 16 276 0.0 0.0 0.00 0.00 0.00 78 1001.0
20260505035138 16 277 0.0 0.0 0.00 0.00 0.00 76 1001.0
20260505034556 16 248 0.0 0.0 0.00 0.00 0.00 77 1000.6
20260505033913 16 264 0.0 0.0 0.00 0.00 0.00 77 1000.6
20260505033320 16 253 0.0 0.0 0.00 0.00 0.00 77 1000.6
20260505032719 16 273 0.0 0.0 0.00 0.00 0.00 78 1000.6
20260505032128 16 260 0.0 0.0 0.00 0.00 0.00 78 1000.6
20260505031514 16 271 0.0 0.0 0.00 0.00 0.00 77 1000.6
20260505030941 16 273 0.0 0.0 0.00 0.00 0.00 78 1000.6
20260505030344 16 240 0.0 0.0 0.00 0.00 0.00 78 1000.6
20260505025743 16 231 0.0 0.0 0.00 0.00 0.00 78 1000.6
20260505025129 16 228 0.0 0.0 0.00 0.00 0.00 78 1000.6
20260505024538 16 231 0.0 0.0 0.00 0.00 0.00 79 1000.6
20260505022123 17 231 0.0 0.0 0.00 0.00 0.00 78 1000.3
20260505021511 17 230 0.0 0.0 0.00 0.00 0.00 77 1000.3
20260505020926 17 240 0.0 0.0 0.00 0.00 0.00 77 1000.3
20260505020317 17 239 0.0 0.0 0.00 0.00 0.00 78 1000.6
20260505015154 17 243 0.0 0.0 0.00 0.00 0.00 78 1000.6
20260505014530 17 274 0.0 0.0 0.00 0.00 0.00 77 1000.3
20260505013918 17 270 0.0 0.0 0.00 0.00 0.00 77 1000.3
20260505013318 17 243 0.0 0.0 0.00 0.00 0.00 76 1000.3
20260505012711 18 323 0.0 0.0 0.00 0.00 0.00 75 1000.3
20260505012147 18 237 0.0 0.0 0.00 0.00 0.00 75 1000.3
20260505011536 18 282 0.0 0.0 0.00 0.00 0.00 76 1000.0
20260505010914 18 295 0.0 0.0 0.00 0.00 0.00 75 1000.6
20260505010331 18 254 0.0 0.0 0.00 0.00 0.00 75 1000.3
20260505005751 18 275 0.0 0.0 0.00 0.00 0.00 75 1000.3
20260505005121 18 259 0.0 0.0 0.00 0.00 0.00 74 1000.3
20260505004534 18 242 0.0 0.0 0.00 0.00 0.00 74 1000.3
20260505003929 18 261 0.0 0.0 0.00 0.00 0.00 74 1000.3
20260505003354 19 237 0.0 0.0 0.00 0.00 0.00 72 1000.3
20260505002111 20 263 0.0 0.0 0.00 0.00 0.00 72 1000.3
20260505001513 20 272 0.0 0.0 0.00 0.00 0.00 70 1000.3
20260505000916 20 252 0.0 0.0 0.00 0.00 0.00 69 1000.3
20260505000318 21 262 0.0 0.0 0.00 0.00 0.00 69 1000.6
20260504235715 21 266 0.0 0.0 0.00 0.00 0.00 68 1000.6
20260504234528 22 274 0.0 0.0 0.00 0.00 0.00 65 1000.6
20260504233933 22 282 0.0 0.0 0.00 0.00 0.00 63 1000.6
20260504233341 23 185 0.0 0.0 0.00 0.00 0.00 63 1000.3
20260504232715 23 273 0.0 1.6 0.00 0.00 0.00 56 1000.3
20260504232153 25 257 1.6 1.6 0.00 0.00 0.00 53 1000.3
20260504231519 26 349 3.2 4.8 0.00 0.00 0.00 51 1000.3
20260504230952 27 215 0.0 1.6 0.00 0.00 0.00 51 1000.6
20260504225715 26 325 1.6 3.2 0.00 0.00 0.00 50 1000.6
20260504225147 26 307 1.6 1.6 0.00 0.00 0.00 51 1000.6
20260504224511 25 297 1.6 3.2 0.00 0.00 0.00 52 1000.6
20260504223935 25 23 1.6 3.2 0.00 0.00 0.00 53 1000.6
20260504223316 25 290 3.2 3.2 0.00 0.00 0.00 51 1000.6
20260504222753 25 336 1.6 1.6 0.00 0.00 0.00 55 1000.6
20260504222112 25 321 0.0 1.6 0.00 0.00 0.00 56 1000.6
20260504221522 25 5 1.6 1.6 0.00 0.00 0.00 52 1001.0
20260504220927 25 25 3.2 4.8 0.00 0.00 0.00 52 1001.0
20260504220316 25 330 9.7 12.9 0.00 0.00 0.00 52 1001.0
20260504215123 24 341 6.4 6.4 0.00 0.00 0.00 55 1001.3
20260504214552 24 16 6.4 6.4 0.00 0.00 0.00 53 1001.3
20260504213951 25 334 4.8 6.4 0.00 0.00 0.00 52 1001.0
20260504211528 25 28 4.8 6.4 0.00 0.00 0.00 51 1001.3
20260504210950 25 318 8.0 11.3 0.00 0.00 0.00 50 1001.3
20260504210330 25 345 3.2 4.8 0.00 0.00 0.00 51 1001.3
20260504205734 24 293 6.4 6.4 0.00 0.00 0.00 51 1001.3
20260504205140 24 42 4.8 6.4 0.00 0.00 0.00 52 1001.3